Regional Weather Roundup
Issued by NWS

Home | Current Version | Previous Version | Graphics & Text | Print | Product List | Glossary On
Versions: 1 2 3 4 5 6 7 8 9 10 11 12 13 14 15 16 17 18 19 20 21 22 23 24 25 26 27 28 29 30 31 32 33 34 35 36 37 38 39 40 41 42 43 44 45 46 47 48 49 50
189
ASUS44 KJAN 310303
RWRMS

MISSISSIPPI HOURLY WEATHER ROUNDUP
NATIONAL WEATHER SERVICE JACKSON MS
1000 PM CDT THU OCT 30 2014

NOTE: "FAIR: INDICATES FEW OR NO CLOUDS BELOW 12,000 FEET WITH NO
SIGNIFICANT WEATHER AND/OR OBSTRUCTIONS TO VISIBILITY.

MSZ001>002-007>008-010>013-018>021-025>028-034>036-310400-
NORTHWEST MISSISSIPPI

CITY           SKY/WX    TMP DP  RH WIND       PRES   REMARKS
CLARKSDALE     CLOUDY    59  55  88 CALM      30.04F
CLEVELAND      MOCLDY    60  53  76 CALM      30.05S
GREENWOOD      MOCLDY    54  51  90 CALM      30.05S
GREENVILLE     CLOUDY    59  50  72 W3        30.05S
GRENADA        MOCLDY    52  50  93 CALM      30.05S
OLIVE BRANCH   PTCLDY    54  46  76 S5        30.02F
OXFORD         CLOUDY    52  48  87 CALM      30.06R
TUNICA         MOCLDY    59  48  67 S8        30.03F
$$

MSZ003>006-009-014>017-022>024-029>033-037>039-310400-
NORTHEAST MISSISSIPPI

CITY           SKY/WX    TMP DP  RH WIND       PRES   REMARKS
COLUMBUS AFB   MOCLDY    47  45  94 CALM      30.04F
CORINTH        CLOUDY    50  46  87 CALM      30.03S
GOLDN TRIANGLE CLEAR     48  41  76 CALM      30.04S
STARKVILLE     FAIR      45  45 100 CALM      30.04S
TUPELO         MOCLDY    54  48  80 W3        30.04S
$$

MSZ040-058-310400-
CENTRAL MISSISSIPPI

CITY           SKY/WX    TMP DP  RH WIND       PRES   REMARKS
JACKSON INTL   CLEAR     49  43  80 CALM      30.06S
JACKSON HAWKNS CLEAR     53  46  77 CALM      30.06S
MERIDIAN KEY   CLEAR     44  41  89 CALM      30.06S
MERIDIAN NAS   PTCLDY    48  43  82 CALM      30.06R
RAYMOND        FAIR      48  45  87 CALM      30.06S
VICKSBURG      CLEAR     48  46  93 CALM      30.07R
$$

MSZ059>079-310400-
SOUTH MISSISSIPPI

CITY           SKY/WX    TMP DP  RH WIND       PRES   REMARKS
BROOKHAVEN     FAIR      48  45  87 CALM      30.08S
COLUMBIA         N/A     46  46 100 MISG      30.04S
HATTIESBURG    CLEAR     50  46  86 CALM      30.06R
MCCOMB         CLEAR     52  45  77 CALM      30.06S
NATCHEZ        CLEAR     52  46  82 CALM      30.08S
PINE BELT      CLEAR     48  41  76 CALM      30.06S
$$

MSZ080>082-310400-
COASTAL MISSISSIPPI

CITY           SKY/WX    TMP DP  RH WIND       PRES   REMARKS
BILOXI         CLEAR     62  44  53 N2        30.04R
PASCAGOULA     CLEAR     44  43  96 CALM      30.04R
GULFPORT       CLEAR     53  46  77 CALM      30.04R
$$



USA.gov is the U.S. government's official web portal to all federal, state and local government web resources and services.